Watonga, OK

12:30 AM CDT on September 30, 2016 (GMT -0500)
Watonga

Weather History for KJWG - November, 2011

Change the Weather History Date:

Thursday, November 3, 2011

  Actual Average Record
Temperature  
Mean Temperature 42 °F -  
Max Temperature 51 °F 60 °F 82 °F (1978)
Min Temperature 32 °F 38 °F 7 °F (1991)
Degree Days  
Heating Degree Days 24    
Moisture  
Dew Point 28 °F    
Average Humidity 65    
Maximum Humidity 87    
Minimum Humidity 35    
Precipitation  
Precipitation 0.00 in - - ()
Sea Level Pressure  
Sea Level Pressure 30.37 in    
Wind  
Wind Speed 14 mph (North)    
Max Wind Speed 21 mph    
Max Gust Speed 28 mph    
Visibility 10 miles    
Events      
Averages and records for this station are not official NWS values.
T = Trace of Precipitation, MM = Missing Value Source: NWS Daily Summary

Daily Weather History Graph

Daily Weather History Graph

Search for Another Location

Airport or City:

Trip Planner

Search our weather history database for the weather conditions in past years. The results will help you decide how hot, cold, wet, or windy it might be!

Date:

Astronomy

Nov. 03, 2011 Rise Set
Actual Time 7:57 AM CDT 6:36 PM CDT
Civil Twilight 7:31 AM CDT 7:02 PM CDT
Nautical Twilight 7:00 AM CDT 7:33 PM CDT
Astronomical Twilight 6:30 AM CDT 8:03 PM CDT
Moon 2:49 PM CDT (11/3) 1:24 AM CDT (11/3)
Length of Visible Light 11h 31m
Length of Day
10h 38m
First Quarter, 60% of the Moon is Illuminated
Nov 3
First Quarter
Nov 10
Full
Nov 18
Last Quarter
Nov 25
New
Dec 2
First Quarter

Hourly Weather History & Observations

Time (CDT) Temp. Windchill Dew Point Humidity Pressure Visibility Wind Dir Wind Speed Gust Speed Precip Events Conditions
12:15 AM 35.6 °F 25.5 °F 32.0 °F 87% 30.35 in 10.0 mi North 17.3 mph 24.2 mph N/A   Clear
12:35 AM 35.6 °F 26.2 °F 32.0 °F 87% 30.35 in 10.0 mi North 15.0 mph 21.9 mph N/A   Clear
12:55 AM 35.6 °F 26.6 °F 32.0 °F 87% 30.35 in 10.0 mi North 13.8 mph 17.3 mph N/A   Clear
1:15 AM 35.6 °F 25.9 °F 32.0 °F 87% 30.35 in 10.0 mi NNW 16.1 mph 21.9 mph N/A   Clear
1:35 AM 35.6 °F 27.1 °F 32.0 °F 87% 30.35 in 10.0 mi NNW 12.7 mph 20.7 mph N/A   Clear
1:55 AM 35.6 °F 26.6 °F 32.0 °F 87% 30.35 in 10.0 mi NNW 13.8 mph - N/A   Clear
2:15 AM 35.6 °F 27.1 °F 32.0 °F 87% 30.35 in 10.0 mi NNW 12.7 mph - N/A   Clear
2:35 AM 35.6 °F 27.1 °F 32.0 °F 87% 30.37 in 10.0 mi NNW 12.7 mph - N/A   Clear
2:55 AM 35.6 °F 27.5 °F 32.0 °F 87% 30.37 in 10.0 mi NNW 11.5 mph 20.7 mph N/A   Clear
3:15 AM 35.6 °F 26.6 °F 32.0 °F 87% 30.38 in 10.0 mi NNW 13.8 mph - N/A   Clear
3:35 AM 35.6 °F 26.2 °F 30.2 °F 81% 30.37 in 10.0 mi NNW 15.0 mph 20.7 mph N/A   Clear
3:55 AM 35.6 °F 26.6 °F 30.2 °F 81% 30.37 in 10.0 mi NNW 13.8 mph 19.6 mph N/A   Clear
4:15 AM 35.6 °F 26.6 °F 30.2 °F 81% 30.37 in 10.0 mi NNW 13.8 mph 21.9 mph N/A   Clear
4:35 AM 35.6 °F 25.9 °F 30.2 °F 81% 30.37 in 10.0 mi North 16.1 mph 21.9 mph N/A   Clear
5:15 AM 33.8 °F 24.3 °F 30.2 °F 87% 30.37 in 10.0 mi NNW 13.8 mph 20.7 mph N/A   Clear
5:35 AM 33.8 °F 23.5 °F 30.2 °F 87% 30.37 in 10.0 mi NNW 16.1 mph - N/A   Clear
5:55 AM 33.8 °F 24.3 °F 28.4 °F 81% 30.37 in 10.0 mi NNW 13.8 mph - N/A   Clear
6:15 AM 33.8 °F 24.8 °F 28.4 °F 81% 30.38 in 10.0 mi NNW 12.7 mph - N/A   Clear
6:35 AM 33.8 °F 24.8 °F 28.4 °F 81% 30.38 in 10.0 mi NNW 12.7 mph - N/A   Clear
6:55 AM 32.0 °F 23.0 °F 28.4 °F 87% 30.39 in 10.0 mi NW 11.5 mph - N/A   Clear
7:15 AM 32.0 °F 23.6 °F 28.4 °F 87% 30.39 in 10.0 mi NW 10.4 mph - N/A   Clear
7:35 AM 32.0 °F 23.0 °F 28.4 °F 87% 30.39 in 10.0 mi NNW 11.5 mph - N/A   Clear
7:55 AM 32.0 °F 22.5 °F 28.4 °F 87% 30.39 in 10.0 mi NNW 12.7 mph - N/A   Clear
8:15 AM 32.0 °F 22.1 °F 28.4 °F 87% 30.39 in 10.0 mi NNW 13.8 mph 18.4 mph N/A   Clear
8:35 AM 32.0 °F 22.5 °F 28.4 °F 87% 30.40 in 10.0 mi NNW 12.7 mph 16.1 mph N/A   Clear
9:15 AM 33.8 °F 24.8 °F 28.4 °F 81% 30.41 in 10.0 mi NNW 12.7 mph 18.4 mph N/A   Clear
9:35 AM 35.6 °F 26.6 °F 28.4 °F 75% 30.42 in 10.0 mi NNW 13.8 mph 20.7 mph N/A   Clear
9:55 AM 35.6 °F 27.1 °F 28.4 °F 75% 30.43 in 10.0 mi North 12.7 mph 20.7 mph N/A   Clear
10:15 AM 37.4 °F 28.9 °F 30.2 °F 75% 30.43 in 10.0 mi NNW 13.8 mph 17.3 mph N/A   Clear
10:35 AM 39.2 °F 32.0 °F 28.4 °F 65% 30.43 in 10.0 mi North 11.5 mph 19.6 mph N/A   Clear
10:55 AM 41.0 °F 33.9 °F 28.4 °F 61% 30.43 in 10.0 mi North 12.7 mph - N/A   Clear
11:15 AM 42.8 °F 35.4 °F 28.4 °F 57% 30.43 in 10.0 mi North 15.0 mph 21.9 mph N/A   Clear
11:35 AM 44.6 °F 37.4 °F 26.6 °F 49% 30.43 in 10.0 mi North 16.1 mph 24.2 mph N/A   Clear
11:55 AM 44.6 °F 37.8 °F 26.6 °F 49% 30.42 in 10.0 mi North 15.0 mph 25.3 mph N/A   Clear
12:15 PM 44.6 °F 36.4 °F 26.6 °F 49% 30.41 in 10.0 mi North 20.7 mph 24.2 mph N/A   Clear
12:35 PM 46.4 °F 39.0 °F 23.0 °F 40% 30.40 in 10.0 mi NNE 19.6 mph 27.6 mph N/A   Clear
12:55 PM 46.4 °F 39.0 °F 26.6 °F 46% 30.39 in 10.0 mi NNE 19.6 mph 26.5 mph N/A   Clear
1:15 PM 46.4 °F 39.2 °F 26.6 °F 46% 30.38 in 10.0 mi NNE 18.4 mph 25.3 mph N/A   Clear
1:35 PM 46.4 °F 40.1 °F 26.6 °F 46% 30.38 in 10.0 mi North 15.0 mph 21.9 mph N/A   Clear
1:55 PM 48.2 °F - 26.6 °F 43% 30.37 in 10.0 mi North 19.6 mph 23.0 mph N/A   Clear
2:15 PM 50.0 °F - 26.6 °F 40% 30.35 in 10.0 mi NNE 13.8 mph 18.4 mph N/A   Clear
2:35 PM 50.0 °F - 26.6 °F 40% 30.35 in 10.0 mi NNW 11.5 mph 17.3 mph N/A   Clear
2:55 PM 50.0 °F - 26.6 °F 40% 30.34 in 10.0 mi North 9.2 mph 17.3 mph N/A   Clear
3:15 PM 50.0 °F - 26.6 °F 40% 30.32 in 10.0 mi North 10.4 mph - N/A   Clear
3:35 PM 50.0 °F - 26.6 °F 40% 30.32 in 10.0 mi North 11.5 mph - N/A   Clear
3:55 PM 51.8 °F - 26.6 °F 38% 30.32 in 10.0 mi NNW 6.9 mph 24.2 mph N/A   Clear
4:15 PM 51.8 °F - 26.6 °F 38% 30.31 in 10.0 mi North 11.5 mph - N/A   Clear
4:35 PM 51.8 °F - 24.8 °F 35% 30.31 in 10.0 mi North 5.8 mph - N/A   Clear
4:55 PM 51.8 °F - 24.8 °F 35% 30.31 in 10.0 mi NNW 5.8 mph - N/A   Clear
5:15 PM 51.8 °F - 26.6 °F 38% 30.31 in 10.0 mi NNW 10.4 mph - N/A   Clear
5:35 PM 51.8 °F - 26.6 °F 38% 30.31 in 10.0 mi North 8.1 mph - N/A   Clear
5:55 PM 51.8 °F - 26.6 °F 38% 30.31 in 10.0 mi North 9.2 mph - N/A   Clear
6:15 PM 50.0 °F - 24.8 °F 37% 30.30 in 10.0 mi North 6.9 mph - N/A   Clear
6:35 PM 48.2 °F - 26.6 °F 43% 30.30 in 10.0 mi NNE 4.6 mph - N/A   Clear
6:55 PM 44.6 °F 43.1 °F 26.6 °F 49% 30.30 in 10.0 mi North 3.5 mph - N/A   Clear
7:15 PM 42.8 °F - 26.6 °F 53% 30.30 in 10.0 mi Calm Calm - N/A   Clear
7:35 PM 39.2 °F 37.0 °F 26.6 °F 61% 30.30 in 10.0 mi North 3.5 mph - N/A   Clear
7:55 PM 37.4 °F - 28.4 °F 70% 30.30 in 10.0 mi Calm Calm - N/A   Clear
8:35 PM 33.8 °F - 28.4 °F 81% 30.29 in 10.0 mi Calm Calm - N/A   Clear
8:55 PM 33.8 °F 29.6 °F 26.6 °F 75% 30.30 in 10.0 mi WNW 4.6 mph - N/A   Clear
9:15 PM 33.8 °F 29.6 °F 26.6 °F 75% 30.29 in 10.0 mi NW 4.6 mph - N/A   Clear
9:55 PM 32.0 °F - 26.6 °F 80% 30.29 in 10.0 mi Calm Calm - N/A   Clear
10:15 PM 32.0 °F - 26.6 °F 80% 30.29 in 10.0 mi Calm Calm - N/A   Clear
10:35 PM 32.0 °F - 26.6 °F 80% 30.30 in 10.0 mi Calm Calm - N/A   Clear
10:55 PM 32.0 °F - 26.6 °F 80% 30.30 in 7.0 mi Calm Calm - N/A   Clear
11:15 PM 32.0 °F - 26.6 °F 80% 30.30 in 7.0 mi Calm Calm - N/A   Clear
11:35 PM 30.2 °F - 24.8 °F 80% 30.30 in 10.0 mi Calm Calm - N/A   Clear